START_TIME,STEP,MOV.,P11,t_acc.,P23,t_acc.,P27,t_acc.,A4,t_acc.
1979-03-01 15:00:12.560 ,2,0,0.,4.8,0.,4.8,1.,4.8,0.,4.8
1979-03-01 15:00:17.360 ,2,0,1.,4.8,0.,4.8,0.,4.8,0.,4.8
1979-03-01 15:00:22.160 ,2,0,0.,4.8,1.,4.8,0.,4.8,0.,4.8
1979-03-01 15:00:26.960 ,2,0,0.,4.8,0.,4.8,1.,4.8,0.,4.8
1979-03-01 15:00:31.760 ,2,0,0.,4.8,0.,4.8,0.,4.8,0.,4.8
1979-03-01 15:00:36.560 ,1,0,0.,4.8,0.,4.8,0.,4.8,0.,4.8
1979-03-01 15:00:41.360 ,1,0,0.,4.8,0.,4.8,0.,4.8,0.,4.8
1979-03-01 15:00:46.160 ,1,0,0.,4.8,0.,4.8,0.,4.8,0.,4.8
1979-03-01 15:00:50.960 ,1,0,0.,4.8,0.,4.8,0.,4.8,1.,4.8
1979-03-01 15:00:55.760 ,1,0,0.,4.8,0.,4.8,0.,4.8,0.,4.8
1979-03-01 15:01:00.560 ,0,0,0.,4.8,0.,4.8,0.,4.8,0.,4.8
1979-03-01 15:01:05.360 ,0,0,1.,4.8,1.,4.8,0.,4.8,0.,4.8
1979-03-01 15:01:10.160 ,0,0,1.,4.8,0.,4.8,0.,4.8,0.,4.8
1979-03-01 15:01:14.960 ,0,0,0.,4.8,0.,4.8,1.,4.8,0.,4.8
1979-03-01 15:01:19.760 ,0,0,0.,4.8,0.,4.8,0.,4.8,0.,4.8
1979-03-01 15:01:24.560 ,0,0,0.,4.8,0.,4.8,1.,4.8,0.,4.8
1979-03-01 15:01:29.360 ,0,0,1.,4.8,0.,4.8,0.,4.8,0.,4.8
1979-03-01 15:01:34.160 ,0,0,0.,4.8,0.,4.8,0.,4.8,0.,4.8
1979-03-01 15:01:38.960 ,0,0,0.,4.8,0.,4.8,0.,4.8,0.,4.8
1979-03-01 15:01:43.760 ,0,0,0.,4.8,0.,4.8,0.,4.8,0.,4.8
1979-03-01 15:01:48.560 ,1,0,1.,4.8,1.,4.8,2.,4.8,0.,4.8
1979-03-01 15:01:53.360 ,1,0,0.,4.8,0.,4.8,0.,4.8,0.,4.8
1979-03-01 15:01:58.160 ,1,0,1.,4.8,0.,4.8,1.,4.8,0.,4.8
1979-03-01 15:02:02.960 ,1,0,0.,4.8,0.,4.8,0.,4.8,0.,4.8
1979-03-01 15:02:07.760 ,1,0,0.,4.8,0.,4.8,0.,4.8,0.,4.8
1979-03-01 15:02:12.560 ,2,0,0.,4.8,0.,4.8,0.,4.8,0.,4.8
1979-03-01 15:02:17.360 ,2,0,0.,4.8,0.,4.8,0.,4.8,0.,4.8
1979-03-01 15:02:22.160 ,2,0,0.,4.8,0.,4.8,1.,4.8,0.,4.8
1979-03-01 15:02:26.960 ,2,0,1.,4.8,2.,4.8,0.,4.8,0.,4.8
1979-03-01 15:02:31.760 ,2,0,0.,4.8,0.,4.8,0.,4.8,0.,4.8
1979-03-01 15:02:36.560 ,0,0,0.,4.8,0.,4.8,0.,4.8,0.,4.8
1979-03-01 15:02:41.360 ,0,0,0.,4.8,0.,4.8,0.,4.8,0.,4.8
1979-03-01 15:02:46.160 ,0,0,0.,4.8,0.,4.8,1.,4.8,0.,4.8
1979-03-01 15:02:50.960 ,0,0,1.,4.8,0.,4.8,0.,4.8,0.,4.8
1979-03-01 15:02:55.760 ,0,0,,0,,0,,0,,0
1979-03-01 15:02:55.760 ,3,0,,0,,0,,0,,0
1979-03-01 15:03:00.560 ,3,0,,0,,0,,0,,0
1979-03-01 15:03:05.360 ,3,0,,0,,0,,0,,0
1979-03-01 15:03:10.160 ,3,0,,0,,0,,0,,0
1979-03-01 15:03:14.960 ,3,0,0.,4.8,0.,4.8,2.,4.8,0.,4.8
1979-03-01 15:03:00.560 ,4,0,1.,4.8,0.,4.8,0.,4.8,0.,4.8
1979-03-01 15:03:05.360 ,4,0,0.,4.8,0.,4.8,0.,4.8,0.,4.8
1979-03-01 15:03:10.160 ,4,0,1.,4.8,0.,4.8,0.,4.8,0.,4.8
1979-03-01 15:03:14.960 ,4,0,,0,,0,,0,,0
1979-03-01 15:03:19.760 ,4,0,0.,4.8,0.,4.8,0.,4.8,0.,4.8
1979-03-01 15:03:24.560 ,5,0,1.,4.8,0.,4.8,1.,4.8,0.,4.8
1979-03-01 15:03:29.360 ,5,0,0.,4.8,0.,4.8,0.,4.8,0.,4.8
1979-03-01 15:03:34.160 ,5,0,0.,4.8,0.,4.8,0.,4.8,0.,4.8
1979-03-01 15:03:38.960 ,5,0,0.,4.8,0.,4.8,0.,4.8,0.,4.8
1979-03-01 15:03:43.760 ,5,0,0.,4.8,0.,4.8,0.,4.8,0.,4.8
1979-03-01 15:03:48.560 ,6,0,0.,4.8,1.,4.8,0.,4.8,0.,4.8
1979-03-01 15:03:53.360 ,6,0,0.,4.8,0.,4.8,1.,4.8,0.,4.8
1979-03-01 15:03:58.160 ,6,0,0.,4.8,0.,4.8,0.,4.8,0.,4.8
1979-03-01 15:04:02.960 ,6,0,1.,4.8,0.,4.8,1.,4.8,0.,4.8
1979-03-01 15:04:07.760 ,6,0,1.,4.8,0.,4.8,0.,4.8,0.,4.8
1979-03-01 15:04:12.560 ,7,0,0.,4.8,0.,4.8,0.,4.8,0.,4.8
1979-03-01 15:04:17.360 ,7,0,0.,4.8,0.,4.8,0.,4.8,0.,4.8
1979-03-01 15:04:22.160 ,7,0,0.,4.8,1.,4.8,0.,4.8,0.,4.8
1979-03-01 15:04:26.960 ,7,0,0.,4.8,1.,4.8,1.,4.8,0.,4.8
1979-03-01 15:04:31.760 ,7,0,0.,4.8,0.,4.8,0.,4.8,0.,4.8
1979-03-01 15:04:36.560 ,7,0,0.,4.8,0.,4.8,1.,4.8,0.,4.8
1979-03-01 15:04:41.360 ,7,0,0.,4.8,0.,4.8,0.,4.8,0.,4.8
1979-03-01 15:04:46.160 ,7,0,1.,4.8,0.,4.8,0.,4.8,0.,4.8
1979-03-01 15:04:50.960 ,7,0,0.,4.8,0.,4.8,0.,4.8,0.,4.8
1979-03-01 15:04:55.760 ,7,0,0.,4.8,0.,4.8,1.,4.8,0.,4.8
1979-03-01 15:05:00.560 ,6,0,1.,4.8,0.,4.8,0.,4.8,0.,4.8
1979-03-01 15:05:05.360 ,6,0,0.,4.8,0.,4.8,0.,4.8,0.,4.8
1979-03-01 15:05:10.160 ,6,0,1.,4.8,0.,4.8,0.,4.8,0.,4.8
1979-03-01 15:05:14.960 ,6,0,0.,4.8,0.,4.8,0.,4.8,0.,4.8
1979-03-01 15:05:19.760 ,6,0,0.,4.8,0.,4.8,0.,4.8,0.,4.8
1979-03-01 15:05:24.560 ,5,0,0.,4.8,0.,4.8,0.,4.8,0.,4.8
1979-03-01 15:05:29.360 ,5,0,0.,4.8,0.,4.8,0.,4.8,0.,4.8
1979-03-01 15:05:34.160 ,5,0,0.,4.8,0.,4.8,0.,4.8,0.,4.8
1979-03-01 15:05:38.960 ,5,0,0.,4.8,0.,4.8,0.,4.8,0.,4.8
1979-03-01 15:05:43.760 ,5,0,0.,4.8,0.,4.8,2.,4.8,0.,4.8
1979-03-01 15:05:48.560 ,4,0,0.,4.8,0.,4.8,0.,4.8,0.,4.8
1979-03-01 15:05:53.360 ,4,0,0.,4.8,0.,4.8,1.,4.8,0.,4.8
1979-03-01 15:05:58.160 ,4,0,0.,4.8,0.,4.8,0.,4.8,0.,4.8
1979-03-01 15:06:02.960 ,4,0,1.,4.8,0.,4.8,0.,4.8,0.,4.8
1979-03-01 15:06:07.760 ,4,0,0.,4.8,0.,4.8,0.,4.8,0.,4.8
1979-03-01 15:06:12.560 ,3,0,0.,4.8,0.,4.8,0.,4.8,0.,4.8
1979-03-01 15:06:17.360 ,3,0,0.,4.8,0.,4.8,0.,4.8,0.,4.8
1979-03-01 15:06:22.160 ,3,0,2.,4.8,0.,4.8,1.,4.8,0.,4.8
1979-03-01 15:06:26.960 ,3,0,0.,4.8,0.,4.8,0.,4.8,0.,4.8
1979-03-01 15:06:31.760 ,3,0,1.,4.8,0.,4.8,0.,4.8,0.,4.8
1979-03-01 15:06:36.560 ,2,0,0.,4.8,0.,4.8,1.,4.8,0.,4.8
1979-03-01 15:06:41.360 ,2,0,0.,4.8,0.,4.8,1.,4.8,0.,4.8
1979-03-01 15:06:46.160 ,2,0,0.,4.8,0.,4.8,0.,4.8,0.,4.8
1979-03-01 15:06:50.960 ,2,0,0.,4.8,0.,4.8,0.,4.8,0.,4.8
1979-03-01 15:06:55.760 ,2,0,0.,4.8,0.,4.8,0.,4.8,0.,4.8
1979-03-01 15:07:00.560 ,1,0,1.,4.8,0.,4.8,0.,4.8,0.,4.8
1979-03-01 15:07:05.360 ,1,0,0.,4.8,0.,4.8,0.,4.8,0.,4.8
1979-03-01 15:07:10.160 ,1,0,1.,4.8,0.,4.8,0.,4.8,0.,4.8
1979-03-01 15:07:14.960 ,1,0,0.,4.8,0.,4.8,0.,4.8,0.,4.8
1979-03-01 15:07:19.760 ,1,0,0.,4.8,0.,4.8,0.,4.8,0.,4.8
1979-03-01 15:07:24.560 ,0,0,0.,4.8,0.,4.8,1.,4.8,0.,4.8
1979-03-01 15:07:29.360 ,0,0,0.,4.8,0.,4.8,0.,4.8,0.,4.8
1979-03-01 15:07:34.160 ,0,0,1.,4.8,0.,4.8,0.,4.8,0.,4.8
1979-03-01 15:07:38.960 ,0,0,0.,4.8,0.,4.8,1.,4.8,0.,4.8
1979-03-01 15:07:43.760 ,0,0,0.,4.8,0.,4.8,0.,4.8,0.,4.8
1979-03-01 15:07:48.560 ,0,0,0.,4.8,0.,4.8,0.,4.8,0.,4.8
1979-03-01 15:07:53.360 ,0,0,0.,4.8,0.,4.8,0.,4.8,0.,4.8
1979-03-01 15:07:58.160 ,0,0,0.,4.8,0.,4.8,0.,4.8,0.,4.8
1979-03-01 15:08:02.960 ,0,0,0.,4.8,0.,4.8,0.,4.8,0.,4.8
1979-03-01 15:08:07.760 ,0,0,0.,4.8,0.,4.8,1.,4.8,0.,4.8
1979-03-01 15:08:12.560 ,1,0,0.,4.8,0.,4.8,0.,4.8,0.,4.8
1979-03-01 15:08:17.360 ,1,0,1.,4.8,0.,4.8,0.,4.8,0.,4.8
1979-03-01 15:08:22.160 ,1,0,0.,4.8,0.,4.8,0.,4.8,0.,4.8
1979-03-01 15:08:26.960 ,1,0,1.,4.8,0.,4.8,0.,4.8,0.,4.8
1979-03-01 15:08:31.760 ,1,0,0.,4.8,0.,4.8,0.,4.8,0.,4.8
1979-03-01 15:08:36.560 ,2,0,0.,4.8,0.,4.8,0.,4.8,0.,4.8
1979-03-01 15:08:41.360 ,2,0,1.,4.8,0.,4.8,0.,4.8,0.,4.8
1979-03-01 15:08:46.160 ,2,0,0.,4.8,0.,4.8,0.,4.8,0.,4.8
1979-03-01 15:08:50.960 ,2,0,1.,4.8,0.,4.8,0.,4.8,0.,4.8
1979-03-01 15:08:55.760 ,2,0,0.,4.8,0.,4.8,0.,4.8,0.,4.8
1979-03-01 15:09:00.560 ,3,0,0.,4.8,1.,4.8,0.,4.8,0.,4.8
1979-03-01 15:09:05.360 ,3,0,0.,4.8,0.,4.8,0.,4.8,0.,4.8
1979-03-01 15:09:10.160 ,3,0,1.,4.8,0.,4.8,0.,4.8,0.,4.8
1979-03-01 15:09:14.960 ,3,0,0.,4.8,0.,4.8,1.,4.8,0.,4.8
1979-03-01 15:09:19.760 ,3,0,0.,4.8,0.,4.8,0.,4.8,0.,4.8
1979-03-01 15:09:24.560 ,4,0,0.,4.8,0.,4.8,1.,4.8,0.,4.8
1979-03-01 15:09:29.360 ,4,0,0.,4.8,0.,4.8,0.,4.8,0.,4.8
1979-03-01 15:09:34.160 ,4,0,0.,4.8,0.,4.8,0.,4.8,0.,4.8
1979-03-01 15:09:38.960 ,4,0,0.,4.8,0.,4.8,0.,4.8,0.,4.8
1979-03-01 15:09:43.760 ,4,0,0.,4.8,0.,4.8,0.,4.8,0.,4.8
1979-03-01 15:09:48.560 ,5,0,1.,4.8,0.,4.8,0.,4.8,0.,4.8
1979-03-01 15:09:53.360 ,5,0,0.,4.8,0.,4.8,1.,4.8,0.,4.8
1979-03-01 15:09:58.160 ,5,0,0.,4.8,0.,4.8,3.,4.8,0.,4.8
1979-03-01 15:10:02.960 ,5,0,0.,4.8,0.,4.8,1.,4.8,0.,4.8
1979-03-01 15:10:07.760 ,5,0,0.,4.8,0.,4.8,1.,4.8,0.,4.8
1979-03-01 15:10:12.560 ,6,0,0.,4.8,0.,4.8,0.,4.8,0.,4.8
1979-03-01 15:10:17.360 ,6,0,0.,4.8,0.,4.8,0.,4.8,0.,4.8
1979-03-01 15:10:22.160 ,6,0,0.,4.8,0.,4.8,1.,4.8,0.,4.8
1979-03-01 15:10:26.960 ,6,0,0.,4.8,0.,4.8,0.,4.8,0.,4.8
1979-03-01 15:10:31.760 ,6,0,0.,4.8,0.,4.8,0.,4.8,0.,4.8
1979-03-01 15:10:36.560 ,7,0,0.,4.8,0.,4.8,0.,4.8,0.,4.8
1979-03-01 15:10:41.360 ,7,0,1.,4.8,0.,4.8,0.,4.8,0.,4.8
1979-03-01 15:10:46.160 ,7,0,0.,4.8,0.,4.8,0.,4.8,0.,4.8
1979-03-01 15:10:50.960 ,7,0,0.,4.8,0.,4.8,1.,4.8,0.,4.8
1979-03-01 15:10:55.760 ,7,0,0.,4.8,0.,4.8,0.,4.8,0.,4.8
1979-03-01 15:11:00.560 ,7,0,0.,4.8,0.,4.8,0.,4.8,0.,4.8
1979-03-01 15:11:05.360 ,7,0,0.,4.8,0.,4.8,0.,4.8,0.,4.8
1979-03-01 15:11:10.160 ,7,0,0.,4.8,0.,4.8,0.,4.8,0.,4.8
1979-03-01 15:11:14.960 ,7,0,0.,4.8,0.,4.8,0.,4.8,0.,4.8
1979-03-01 15:11:19.760 ,7,0,0.,4.8,1.,4.8,1.,4.8,0.,4.8
1979-03-01 15:11:24.560 ,6,0,1.,4.8,0.,4.8,1.,4.8,0.,4.8
1979-03-01 15:11:29.360 ,6,0,0.,4.8,0.,4.8,0.,4.8,0.,4.8
1979-03-01 15:11:34.160 ,6,0,2.,4.8,0.,4.8,0.,4.8,0.,4.8
1979-03-01 15:11:38.960 ,6,0,0.,4.8,0.,4.8,0.,4.8,0.,4.8
1979-03-01 15:11:43.760 ,6,0,0.,4.8,0.,4.8,0.,4.8,0.,4.8
1979-03-01 15:11:48.560 ,5,0,1.,4.8,0.,4.8,0.,4.8,0.,4.8
1979-03-01 15:11:53.360 ,5,0,0.,4.8,0.,4.8,0.,4.8,0.,4.8
1979-03-01 15:11:58.160 ,5,0,0.,4.8,1.,4.8,0.,4.8,0.,4.8
1979-03-01 15:12:02.960 ,5,0,0.,4.8,0.,4.8,0.,4.8,0.,4.8
1979-03-01 15:12:07.760 ,5,0,0.,4.8,0.,4.8,1.,4.8,0.,4.8
1979-03-01 15:12:12.560 ,4,0,0.,4.8,0.,4.8,0.,4.8,0.,4.8
1979-03-01 15:12:17.360 ,4,0,0.,4.8,0.,4.8,1.,4.8,0.,4.8
1979-03-01 15:12:22.160 ,4,0,2.,4.8,0.,4.8,0.,4.8,0.,4.8
1979-03-01 15:12:26.960 ,4,0,1.,4.8,0.,4.8,0.,4.8,0.,4.8
1979-03-01 15:12:31.760 ,4,0,2.,4.8,0.,4.8,0.,4.8,0.,4.8
1979-03-01 15:12:36.560 ,3,0,0.,4.8,0.,4.8,1.,4.8,0.,4.8
1979-03-01 15:12:41.360 ,3,0,0.,4.8,0.,4.8,1.,4.8,0.,4.8
1979-03-01 15:12:46.160 ,3,0,0.,4.8,1.,4.8,0.,4.8,0.,4.8
1979-03-01 15:12:50.960 ,3,0,0.,4.8,0.,4.8,1.,4.8,0.,4.8
1979-03-01 15:12:55.760 ,3,0,0.,4.8,0.,4.8,1.,4.8,0.,4.8
1979-03-01 15:13:00.560 ,2,0,0.,4.8,0.,4.8,0.,4.8,0.,4.8
1979-03-01 15:13:05.360 ,2,0,0.,4.8,0.,4.8,0.,4.8,0.,4.8
1979-03-01 15:13:10.160 ,2,0,1.,4.8,0.,4.8,1.,4.8,0.,4.8
1979-03-01 15:13:14.960 ,2,0,1.,4.8,0.,4.8,0.,4.8,0.,4.8
1979-03-01 15:13:19.760 ,2,0,0.,4.8,0.,4.8,1.,4.8,0.,4.8
1979-03-01 15:13:24.560 ,1,0,0.,4.8,0.,4.8,0.,4.8,0.,4.8
1979-03-01 15:13:29.360 ,1,0,0.,4.8,0.,4.8,0.,4.8,0.,4.8
1979-03-01 15:13:34.160 ,1,0,0.,4.8,0.,4.8,0.,4.8,0.,4.8
1979-03-01 15:13:38.960 ,1,0,0.,4.8,1.,4.8,0.,4.8,0.,4.8
1979-03-01 15:13:43.760 ,1,0,0.,4.8,0.,4.8,1.,4.8,0.,4.8
1979-03-01 15:13:48.560 ,0,0,0.,4.8,1.,4.8,0.,4.8,0.,4.8
1979-03-01 15:13:53.360 ,0,0,0.,4.8,0.,4.8,0.,4.8,0.,4.8
1979-03-01 15:13:58.160 ,0,0,0.,4.8,0.,4.8,0.,4.8,0.,4.8
1979-03-01 15:14:02.960 ,0,0,0.,4.8,1.,4.8,0.,4.8,0.,4.8
1979-03-01 15:14:07.760 ,0,0,0.,4.8,0.,4.8,0.,4.8,0.,4.8
1979-03-01 15:14:12.560 ,0,0,0.,4.8,0.,4.8,0.,4.8,0.,4.8
1979-03-01 15:14:17.360 ,0,0,2.,4.8,1.,4.8,0.,4.8,0.,4.8
1979-03-01 15:14:22.160 ,0,0,0.,4.8,0.,4.8,0.,4.8,0.,4.8
1979-03-01 15:14:26.960 ,0,0,0.,4.8,0.,4.8,0.,4.8,0.,4.8
1979-03-01 15:14:31.760 ,0,0,0.,4.8,0.,4.8,0.,4.8,0.,4.8
1979-03-01 15:14:36.560 ,1,0,1.,4.8,0.,4.8,1.,4.8,0.,4.8
1979-03-01 15:14:41.360 ,1,0,0.,4.8,0.,4.8,1.,4.8,0.,4.8
1979-03-01 15:14:46.160 ,1,0,0.,4.8,0.,4.8,1.,4.8,0.,4.8
1979-03-01 15:14:50.960 ,1,0,0.,4.8,0.,4.8,0.,4.8,0.,4.8
1979-03-01 15:14:55.760 ,1,0,0.,4.8,0.,4.8,0.,4.8,0.,4.8
1979-03-01 15:15:00.560 ,2,0,1.,4.8,0.,4.8,1.,4.8,0.,4.8
1979-03-01 15:15:05.360 ,2,0,0.,4.8,0.,4.8,1.,4.8,0.,4.8
1979-03-01 15:15:10.160 ,2,0,0.,4.8,0.,4.8,0.,4.8,0.,4.8
1979-03-01 15:15:14.960 ,2,0,0.,4.8,0.,4.8,0.,4.8,0.,4.8
1979-03-01 15:15:19.760 ,2,0,0.,4.8,0.,4.8,1.,4.8,0.,4.8
1979-03-01 15:15:24.560 ,3,0,0.,4.8,1.,4.8,0.,4.8,0.,4.8
1979-03-01 15:15:29.360 ,3,0,0.,4.8,0.,4.8,0.,4.8,0.,4.8
1979-03-01 15:15:34.160 ,3,0,0.,4.8,0.,4.8,0.,4.8,0.,4.8
1979-03-01 15:15:38.960 ,3,0,0.,4.8,0.,4.8,0.,4.8,0.,4.8
1979-03-01 15:15:43.760 ,3,0,0.,4.8,0.,4.8,0.,4.8,0.,4.8
1979-03-01 15:15:48.560 ,4,0,1.,4.8,0.,4.8,0.,4.8,0.,4.8
1979-03-01 15:15:53.360 ,4,0,0.,4.8,0.,4.8,0.,4.8,0.,4.8
1979-03-01 15:15:58.160 ,4,0,0.,4.8,0.,4.8,0.,4.8,0.,4.8
1979-03-01 15:16:02.960 ,4,0,1.,4.8,0.,4.8,1.,4.8,0.,4.8
1979-03-01 15:16:07.760 ,4,0,0.,4.8,0.,4.8,0.,4.8,0.,4.8
1979-03-01 15:16:12.560 ,5,0,0.,4.8,0.,4.8,0.,4.8,0.,4.8
1979-03-01 15:16:17.360 ,5,0,0.,4.8,0.,4.8,0.,4.8,0.,4.8
1979-03-01 15:16:22.160 ,5,0,0.,4.8,0.,4.8,0.,4.8,0.,4.8
1979-03-01 15:16:26.960 ,5,0,0.,4.8,0.,4.8,0.,4.8,0.,4.8
1979-03-01 15:16:31.760 ,5,0,0.,4.8,0.,4.8,0.,4.8,0.,4.8
1979-03-01 15:16:36.560 ,6,0,0.,4.8,0.,4.8,0.,4.8,0.,4.8
1979-03-01 15:16:41.360 ,6,0,2.,4.8,0.,4.8,0.,4.8,0.,4.8
1979-03-01 15:16:46.160 ,6,0,0.,4.8,0.,4.8,0.,4.8,0.,4.8
1979-03-01 15:16:50.960 ,6,0,0.,4.8,0.,4.8,0.,4.8,0.,4.8
1979-03-01 15:16:55.760 ,6,0,0.,4.8,0.,4.8,0.,4.8,0.,4.8
1979-03-01 15:17:00.560 ,7,0,0.,4.8,0.,4.8,0.,4.8,0.,4.8
1979-03-01 15:17:05.360 ,7,0,0.,4.8,1.,4.8,0.,4.8,0.,4.8
1979-03-01 15:17:10.160 ,7,0,0.,4.8,0.,4.8,0.,4.8,0.,4.8
1979-03-01 15:17:14.960 ,7,0,0.,4.8,0.,4.8,0.,4.8,0.,4.8
1979-03-01 15:17:19.760 ,7,0,0.,4.8,0.,4.8,1.,4.8,0.,4.8
1979-03-01 15:17:24.560 ,7,0,0.,4.8,0.,4.8,0.,4.8,0.,4.8
1979-03-01 15:17:29.360 ,7,0,0.,4.8,0.,4.8,0.,4.8,0.,4.8
1979-03-01 15:17:34.160 ,7,0,0.,4.8,0.,4.8,0.,4.8,0.,4.8
1979-03-01 15:17:38.960 ,7,0,2.,4.8,0.,4.8,0.,4.8,0.,4.8
1979-03-01 15:17:43.760 ,7,0,0.,4.8,0.,4.8,0.,4.8,0.,4.8
1979-03-01 15:17:48.560 ,6,0,1.,4.8,0.,4.8,0.,4.8,0.,4.8
1979-03-01 15:17:53.360 ,6,0,0.,4.8,1.,4.8,0.,4.8,0.,4.8
1979-03-01 15:17:58.160 ,6,0,0.,4.8,0.,4.8,0.,4.8,0.,4.8
1979-03-01 15:18:02.960 ,6,0,0.,4.8,0.,4.8,0.,4.8,0.,4.8
1979-03-01 15:18:07.760 ,6,0,0.,4.8,0.,4.8,0.,4.8,0.,4.8
1979-03-01 15:18:12.560 ,5,0,1.,4.8,0.,4.8,0.,4.8,0.,4.8
1979-03-01 15:18:17.360 ,5,0,1.,4.8,0.,4.8,0.,4.8,0.,4.8
1979-03-01 15:18:22.160 ,5,0,1.,4.8,2.,4.8,0.,4.8,0.,4.8
1979-03-01 15:18:26.960 ,5,0,0.,4.8,0.,4.8,0.,4.8,0.,4.8
1979-03-01 15:18:31.760 ,5,0,0.,4.8,0.,4.8,0.,4.8,0.,4.8
1979-03-01 15:18:36.560 ,4,0,0.,4.8,0.,4.8,0.,4.8,0.,4.8
1979-03-01 15:18:41.360 ,4,0,0.,4.8,0.,4.8,0.,4.8,0.,4.8
1979-03-01 15:18:46.160 ,4,0,0.,4.8,1.,4.8,0.,4.8,0.,4.8
1979-03-01 15:18:50.960 ,4,0,1.,4.8,0.,4.8,0.,4.8,0.,4.8
1979-03-01 15:18:55.760 ,4,0,2.,4.8,0.,4.8,0.,4.8,0.,4.8
1979-03-01 15:19:00.560 ,3,0,0.,4.8,0.,4.8,0.,4.8,1.,4.8
1979-03-01 15:19:05.360 ,3,0,2.,4.8,0.,4.8,1.,4.8,0.,4.8
1979-03-01 15:19:10.160 ,3,0,0.,4.8,0.,4.8,0.,4.8,0.,4.8
1979-03-01 15:19:14.960 ,3,0,0.,4.8,0.,4.8,0.,4.8,0.,4.8
1979-03-01 15:19:19.760 ,3,0,0.,4.8,0.,4.8,1.,4.8,0.,4.8
1979-03-01 15:19:24.560 ,2,0,0.,4.8,0.,4.8,1.,4.8,0.,4.8
1979-03-01 15:19:29.360 ,2,0,0.,4.8,0.,4.8,0.,4.8,0.,4.8
1979-03-01 15:19:34.160 ,2,0,0.,4.8,1.,4.8,1.,4.8,0.,4.8
1979-03-01 15:19:38.960 ,2,0,0.,4.8,0.,4.8,1.,4.8,0.,4.8
1979-03-01 15:19:43.760 ,2,0,1.,4.8,0.,4.8,1.,4.8,0.,4.8
1979-03-01 15:19:48.560 ,1,0,0.,4.8,0.,4.8,0.,4.8,0.,4.8
1979-03-01 15:19:53.360 ,1,0,0.,4.8,0.,4.8,0.,4.8,0.,4.8
1979-03-01 15:19:58.160 ,1,0,1.,4.8,0.,4.8,0.,4.8,0.,4.8
1979-03-01 15:20:02.960 ,1,0,1.,4.8,0.,4.8,1.,4.8,0.,4.8
1979-03-01 15:20:07.760 ,1,0,0.,4.8,0.,4.8,0.,4.8,0.,4.8
1979-03-01 15:20:12.560 ,0,0,0.,4.8,0.,4.8,0.,4.8,0.,4.8
1979-03-01 15:20:17.360 ,0,0,0.,4.8,1.,4.8,1.,4.8,0.,4.8
1979-03-01 15:20:22.160 ,0,0,0.,4.8,0.,4.8,1.,4.8,0.,4.8
1979-03-01 15:20:26.960 ,0,0,0.,4.8,0.,4.8,0.,4.8,0.,4.8
1979-03-01 15:20:31.760 ,0,0,0.,4.8,0.,4.8,1.,4.8,0.,4.8
1979-03-01 15:20:36.560 ,0,0,0.,4.8,0.,4.8,0.,4.8,0.,4.8
1979-03-01 15:20:41.360 ,0,0,1.,4.8,0.,4.8,0.,4.8,0.,4.8
1979-03-01 15:20:46.160 ,0,0,1.,4.8,1.,4.8,0.,4.8,0.,4.8
1979-03-01 15:20:50.960 ,0,0,0.,4.8,0.,4.8,0.,4.8,0.,4.8
1979-03-01 15:20:55.760 ,0,0,0.,4.8,0.,4.8,0.,4.8,0.,4.8
1979-03-01 15:21:00.560 ,1,0,1.,4.8,0.,4.8,0.,4.8,0.,4.8
1979-03-01 15:21:05.360 ,1,0,0.,4.8,0.,4.8,0.,4.8,0.,4.8
1979-03-01 15:21:10.160 ,1,0,0.,4.8,1.,4.8,0.,4.8,1.,4.8
1979-03-01 15:21:14.960 ,1,0,0.,4.8,1.,4.8,0.,4.8,0.,4.8
1979-03-01 15:21:19.760 ,1,0,1.,4.8,0.,4.8,0.,4.8,0.,4.8
1979-03-01 15:21:24.560 ,2,0,0.,4.8,0.,4.8,0.,4.8,0.,4.8
1979-03-01 15:21:29.360 ,2,0,0.,4.8,0.,4.8,0.,4.8,0.,4.8
1979-03-01 15:21:34.160 ,2,0,0.,4.8,0.,4.8,0.,4.8,0.,4.8
1979-03-01 15:21:38.960 ,2,0,0.,4.8,0.,4.8,0.,4.8,0.,4.8
1979-03-01 15:21:43.760 ,2,0,0.,4.8,0.,4.8,0.,4.8,0.,4.8
1979-03-01 15:21:48.560 ,3,0,1.,4.8,0.,4.8,0.,4.8,0.,4.8
1979-03-01 15:21:53.360 ,3,0,0.,4.8,0.,4.8,0.,4.8,0.,4.8
1979-03-01 15:21:58.160 ,3,0,0.,4.8,0.,4.8,0.,4.8,0.,4.8
1979-03-01 15:22:02.960 ,3,0,0.,4.8,0.,4.8,0.,4.8,0.,4.8
1979-03-01 15:22:07.760 ,3,0,2.,4.8,0.,4.8,0.,4.8,0.,4.8
1979-03-01 15:22:12.560 ,4,0,0.,4.8,0.,4.8,1.,4.8,0.,4.8
1979-03-01 15:22:17.360 ,4,0,1.,4.8,0.,4.8,0.,4.8,0.,4.8
1979-03-01 15:22:22.160 ,4,0,0.,4.8,1.,4.8,1.,4.8,0.,4.8
1979-03-01 15:22:26.960 ,4,0,0.,4.8,0.,4.8,0.,4.8,0.,4.8
1979-03-01 15:22:31.760 ,4,0,0.,4.8,0.,4.8,0.,4.8,0.,4.8
1979-03-01 15:22:36.560 ,5,0,1.,4.8,0.,4.8,0.,4.8,0.,4.8
1979-03-01 15:22:41.360 ,5,0,0.,4.8,0.,4.8,0.,4.8,0.,4.8
1979-03-01 15:22:46.160 ,5,0,0.,4.8,0.,4.8,0.,4.8,0.,4.8
1979-03-01 15:22:50.960 ,5,0,0.,4.8,1.,4.8,0.,4.8,0.,4.8
1979-03-01 15:22:55.760 ,5,0,0.,4.8,1.,4.8,0.,4.8,0.,4.8
1979-03-01 15:23:00.560 ,6,0,0.,4.8,0.,4.8,0.,4.8,0.,4.8
1979-03-01 15:23:05.360 ,6,0,0.,4.8,0.,4.8,1.,4.8,0.,4.8
1979-03-01 15:23:10.160 ,6,0,0.,4.8,0.,4.8,0.,4.8,0.,4.8
1979-03-01 15:23:14.960 ,6,0,1.,4.8,0.,4.8,0.,4.8,0.,4.8
1979-03-01 15:23:19.760 ,6,0,0.,4.8,0.,4.8,1.,4.8,0.,4.8
1979-03-01 15:23:24.560 ,7,0,0.,4.8,0.,4.8,0.,4.8,0.,4.8
1979-03-01 15:23:29.360 ,7,0,0.,4.8,0.,4.8,2.,4.8,0.,4.8
1979-03-01 15:23:34.160 ,7,0,1.,4.8,0.,4.8,1.,4.8,0.,4.8
1979-03-01 15:23:38.960 ,7,0,0.,4.8,0.,4.8,0.,4.8,0.,4.8
1979-03-01 15:23:43.760 ,7,0,0.,4.8,0.,4.8,1.,4.8,0.,4.8
1979-03-01 15:23:48.560 ,7,0,0.,4.8,0.,4.8,0.,4.8,0.,4.8
1979-03-01 15:23:53.360 ,7,0,1.,4.8,0.,4.8,0.,4.8,0.,4.8
1979-03-01 15:23:58.160 ,7,0,1.,4.8,0.,4.8,0.,4.8,0.,4.8
1979-03-01 15:24:02.960 ,7,0,1.,4.8,0.,4.8,1.,4.8,0.,4.8
1979-03-01 15:24:07.760 ,7,0,0.,4.8,0.,4.8,0.,4.8,0.,4.8
1979-03-01 15:24:12.560 ,6,0,0.,4.8,0.,4.8,0.,4.8,0.,4.8
1979-03-01 15:24:17.360 ,6,0,0.,4.8,0.,4.8,0.,4.8,0.,4.8
1979-03-01 15:24:22.160 ,6,0,1.,4.8,0.,4.8,0.,4.8,0.,4.8
1979-03-01 15:24:26.960 ,6,0,0.,4.8,0.,4.8,1.,4.8,0.,4.8
1979-03-01 15:24:31.760 ,6,0,1.,4.8,0.,4.8,0.,4.8,0.,4.8
1979-03-01 15:24:36.560 ,5,0,0.,4.8,0.,4.8,0.,4.8,0.,4.8
1979-03-01 15:24:41.360 ,5,0,0.,4.8,0.,4.8,0.,4.8,0.,4.8
1979-03-01 15:24:46.160 ,5,0,1.,4.8,0.,4.8,0.,4.8,0.,4.8
1979-03-01 15:24:50.960 ,5,0,0.,4.8,0.,4.8,0.,4.8,0.,4.8
1979-03-01 15:24:55.760 ,5,0,0.,4.8,0.,4.8,0.,4.8,0.,4.8
1979-03-01 15:25:00.560 ,4,0,0.,4.8,0.,4.8,0.,4.8,0.,4.8
1979-03-01 15:25:05.360 ,4,0,0.,4.8,0.,4.8,0.,4.8,0.,4.8
1979-03-01 15:25:10.160 ,4,0,0.,4.8,0.,4.8,0.,4.8,0.,4.8
1979-03-01 15:25:14.960 ,4,0,0.,4.8,0.,4.8,0.,4.8,0.,4.8
1979-03-01 15:25:19.760 ,4,0,1.,4.8,0.,4.8,0.,4.8,0.,4.8
1979-03-01 15:25:24.560 ,3,0,0.,4.8,0.,4.8,0.,4.8,0.,4.8
1979-03-01 15:25:29.360 ,3,0,0.,4.8,0.,4.8,0.,4.8,0.,4.8
1979-03-01 15:25:34.160 ,3,0,0.,4.8,0.,4.8,0.,4.8,0.,4.8
1979-03-01 15:25:38.960 ,3,0,1.,4.8,0.,4.8,0.,4.8,0.,4.8
1979-03-01 15:25:43.760 ,3,0,0.,4.8,0.,4.8,0.,4.8,1.,4.8
1979-03-01 15:25:48.560 ,2,0,2.,4.8,0.,4.8,0.,4.8,0.,4.8
1979-03-01 15:25:53.360 ,2,0,0.,4.8,0.,4.8,1.,4.8,0.,4.8
1979-03-01 15:25:58.160 ,2,0,0.,4.8,0.,4.8,0.,4.8,0.,4.8
1979-03-01 15:26:02.960 ,2,0,0.,4.8,0.,4.8,0.,4.8,0.,4.8
1979-03-01 15:26:07.760 ,2,0,0.,4.8,0.,4.8,1.,4.8,0.,4.8
1979-03-01 15:26:12.560 ,1,0,0.,4.8,0.,4.8,0.,4.8,0.,4.8
1979-03-01 15:26:17.360 ,1,0,0.,4.8,0.,4.8,0.,4.8,0.,4.8
1979-03-01 15:26:22.160 ,1,0,0.,4.8,0.,4.8,0.,4.8,0.,4.8
1979-03-01 15:26:26.960 ,1,0,0.,4.8,0.,4.8,1.,4.8,0.,4.8
1979-03-01 15:26:31.760 ,1,0,1.,4.8,0.,4.8,1.,4.8,0.,4.8
1979-03-01 15:26:36.560 ,0,0,0.,4.8,0.,4.8,1.,4.8,0.,4.8
1979-03-01 15:26:41.360 ,0,0,0.,4.8,0.,4.8,0.,4.8,0.,4.8
1979-03-01 15:26:46.160 ,0,0,0.,4.8,0.,4.8,0.,4.8,0.,4.8
1979-03-01 15:26:50.960 ,0,0,0.,4.8,0.,4.8,0.,4.8,0.,4.8
1979-03-01 15:26:55.760 ,0,0,0.,4.8,0.,4.8,0.,4.8,0.,4.8
1979-03-01 15:27:00.560 ,0,0,0.,4.8,0.,4.8,0.,4.8,0.,4.8
1979-03-01 15:27:05.360 ,0,0,0.,4.8,0.,4.8,0.,4.8,1.,4.8
1979-03-01 15:27:10.160 ,0,0,0.,4.8,0.,4.8,0.,4.8,0.,4.8
1979-03-01 15:27:14.960 ,0,0,1.,4.8,0.,4.8,0.,4.8,0.,4.8
1979-03-01 15:27:19.760 ,0,0,0.,4.8,0.,4.8,1.,4.8,0.,4.8
1979-03-01 15:27:24.560 ,1,0,1.,4.8,0.,4.8,1.,4.8,0.,4.8
1979-03-01 15:27:29.360 ,1,0,0.,4.8,0.,4.8,0.,4.8,0.,4.8
1979-03-01 15:27:34.160 ,1,0,0.,4.8,0.,4.8,0.,4.8,0.,4.8
1979-03-01 15:27:38.960 ,1,0,0.,4.8,0.,4.8,0.,4.8,0.,4.8
1979-03-01 15:27:43.760 ,1,0,0.,4.8,0.,4.8,0.,4.8,0.,4.8
1979-03-01 15:27:48.560 ,2,0,0.,4.8,0.,4.8,0.,4.8,0.,4.8
1979-03-01 15:27:53.360 ,2,0,0.,4.8,0.,4.8,0.,4.8,0.,4.8
1979-03-01 15:27:58.160 ,2,0,0.,4.8,0.,4.8,0.,4.8,0.,4.8
1979-03-01 15:28:02.960 ,2,0,0.,4.8,0.,4.8,0.,4.8,0.,4.8
1979-03-01 15:28:07.760 ,2,0,0.,4.8,0.,4.8,0.,4.8,0.,4.8
1979-03-01 15:28:12.560 ,3,0,0.,4.8,0.,4.8,1.,4.8,0.,4.8
1979-03-01 15:28:17.360 ,3,0,0.,4.8,0.,4.8,0.,4.8,0.,4.8
1979-03-01 15:28:22.160 ,3,0,0.,4.8,0.,4.8,0.,4.8,0.,4.8
1979-03-01 15:28:26.960 ,3,0,0.,4.8,0.,4.8,0.,4.8,0.,4.8
1979-03-01 15:28:31.760 ,3,0,0.,4.8,0.,4.8,1.,4.8,0.,4.8
1979-03-01 15:28:36.560 ,4,0,0.,4.8,0.,4.8,0.,4.8,0.,4.8
1979-03-01 15:28:41.360 ,4,0,0.,4.8,0.,4.8,0.,4.8,0.,4.8
1979-03-01 15:28:46.160 ,4,0,0.,4.8,0.,4.8,0.,4.8,1.,4.8
1979-03-01 15:28:50.960 ,4,0,0.,4.8,0.,4.8,0.,4.8,0.,4.8
1979-03-01 15:28:55.760 ,4,0,0.,4.8,0.,4.8,0.,4.8,0.,4.8
1979-03-01 15:29:00.560 ,5,0,1.,4.8,0.,4.8,0.,4.8,0.,4.8
1979-03-01 15:29:05.360 ,5,0,0.,4.8,0.,4.8,0.,4.8,1.,4.8
1979-03-01 15:29:10.160 ,5,0,0.,4.8,0.,4.8,0.,4.8,0.,4.8
1979-03-01 15:29:14.960 ,5,0,0.,4.8,0.,4.8,1.,4.8,0.,4.8
1979-03-01 15:29:19.760 ,5,0,0.,4.8,2.,4.8,0.,4.8,0.,4.8
1979-03-01 15:29:24.560 ,6,0,0.,4.8,0.,4.8,0.,4.8,0.,4.8
1979-03-01 15:29:29.360 ,6,0,1.,4.8,0.,4.8,1.,4.8,0.,4.8
1979-03-01 15:29:34.160 ,6,0,1.,4.8,0.,4.8,0.,4.8,0.,4.8
1979-03-01 15:29:38.960 ,6,0,0.,4.8,0.,4.8,0.,4.8,0.,4.8
1979-03-01 15:29:43.760 ,6,0,0.,4.8,0.,4.8,0.,4.8,0.,4.8
1979-03-01 15:29:48.560 ,7,0,0.,4.8,0.,4.8,0.,4.8,0.,4.8
1979-03-01 15:29:53.360 ,7,0,0.,4.8,0.,4.8,0.,4.8,0.,4.8
1979-03-01 15:29:58.160 ,7,0,0.,4.8,0.,4.8,1.,4.8,0.,4.8
1979-03-01 15:30:02.960 ,7,0,0.,4.8,0.,4.8,0.,4.8,0.,4.8
1979-03-01 15:30:07.760 ,7,0,0.,4.8,0.,4.8,0.,4.8,0.,4.8
1979-03-01 15:30:12.560 ,7,0,0.,4.8,1.,4.8,1.,4.8,0.,4.8
1979-03-01 15:30:17.360 ,7,0,0.,4.8,0.,4.8,1.,4.8,0.,4.8
1979-03-01 15:30:22.160 ,7,0,0.,4.8,0.,4.8,0.,4.8,0.,4.8
1979-03-01 15:30:26.960 ,7,0,0.,4.8,1.,4.8,0.,4.8,0.,4.8
1979-03-01 15:30:31.760 ,7,0,0.,4.8,1.,4.8,1.,4.8,0.,4.8
1979-03-01 15:30:36.560 ,6,0,0.,4.8,0.,4.8,0.,4.8,0.,4.8
1979-03-01 15:30:41.360 ,6,0,0.,4.8,0.,4.8,0.,4.8,0.,4.8
1979-03-01 15:30:46.160 ,6,0,1.,4.8,1.,4.8,1.,4.8,1.,4.8
1979-03-01 15:30:50.960 ,6,0,0.,4.8,0.,4.8,0.,4.8,0.,4.8
1979-03-01 15:30:55.760 ,6,0,0.,4.8,0.,4.8,0.,4.8,0.,4.8
1979-03-01 15:31:00.560 ,0,0,0.,4.8,0.,4.8,0.,4.8,0.,4.8
1979-03-01 15:31:05.360 ,0,0,,0,,0,,0,,0
1979-03-01 15:31:10.160 ,0,0,,0,,0,,0,,0
1979-03-01 15:31:14.960 ,0,0,,0,,0,,0,,0
1979-03-01 15:31:19.760 ,0,0,,0,,0,,0,,0
1979-03-01 15:31:24.560 ,0,0,,0,,0,,0,,0
1979-03-01 15:31:29.360 ,0,0,,0,,0,,0,,0
1979-03-01 15:31:34.160 ,0,0,,0,,0,,0,,0
1979-03-01 15:31:38.960 ,0,0,,0,,0,,0,,0
1979-03-01 15:31:43.760 ,0,0,,0,,0,,0,,0
1979-03-01 15:31:50.360 ,0,0,,0,,0,,0,,0
1979-03-01 15:31:55.160 ,0,0,0.,4.8,0.,4.8,0.,4.8,0.,4.8
1979-03-01 15:31:59.960 ,0,0,0.,4.8,0.,4.8,1.,4.8,0.,4.8
1979-03-01 15:32:04.760 ,0,0,1.,4.8,0.,4.8,0.,4.8,0.,4.8
1979-03-01 15:32:09.560 ,0,0,0.,4.8,0.,4.8,0.,4.8,0.,4.8
1979-03-01 15:32:12.560 ,2,0,0.,4.8,0.,4.8,0.,4.8,0.,4.8
1979-03-01 15:32:17.360 ,2,0,0.,4.8,0.,4.8,0.,4.8,0.,4.8
1979-03-01 15:32:22.160 ,2,0,1.,4.8,0.,4.8,0.,4.8,0.,4.8
1979-03-01 15:32:26.960 ,2,0,1.,4.8,0.,4.8,1.,4.8,0.,4.8
1979-03-01 15:32:31.760 ,2,0,1.,4.8,0.,4.8,0.,4.8,0.,4.8
1979-03-01 15:32:36.560 ,1,0,0.,4.8,0.,4.8,0.,4.8,0.,4.8
1979-03-01 15:32:41.360 ,1,0,0.,4.8,0.,4.8,0.,4.8,0.,4.8
1979-03-01 15:32:46.160 ,1,0,0.,4.8,0.,4.8,0.,4.8,0.,4.8
1979-03-01 15:32:50.960 ,1,0,0.,4.8,0.,4.8,0.,4.8,0.,4.8
1979-03-01 15:32:55.760 ,1,0,1.,4.8,0.,4.8,0.,4.8,0.,4.8
1979-03-01 15:33:00.560 ,0,0,0.,4.8,0.,4.8,0.,4.8,0.,4.8
1979-03-01 15:33:05.360 ,0,0,0.,4.8,0.,4.8,0.,4.8,0.,4.8